Location: Newark
(5.8900°S, 42.6378°W)
Time: 09:37:17
(UTC+00:00)

Vanguard 1 Rocket - Pass Details

Date: 19 October 2019
Orbit: 651 x 4225 km, 34.3° (Epoch: 13 November)

Event Time Altitude Azimuth Distance (km) Brightness Sun altitude
Rises 09:09:30 0° 234° (SW) 3,194 9.8 9.3°
Reaches altitude 10° 09:11:28 10° 233° (SW) 2,426 9.2 9.8°
Maximum altitude 09:17:00 87° 143° (SE) 1,137 8.1 11.2°
Drops below altitude 10° 09:27:13 10° 54° (NE) 4,305 11.7 13.7°
Sets 09:31:53 0° 54° (NE) 5,891 12.3 14.8°
